Monterey, CA

9:18 AM PDT on March 25, 2017 (GMT -0700)
Monterey Peninsula

Weather History for KMRY - November, 2011

Change the Weather History Date:

Saturday, November 5, 2011

  Actual Average Record
Temperature  
Mean Temperature 53 °F 56 °F  
Max Temperature 58 °F 65 °F 88 °F (2012)
Min Temperature 48 °F 48 °F 41 °F (2003)
Degree Days  
Heating Degree Days 12    
Month to date heating degree days 45  
Since 1 July heating degree days 603  
Cooling Degree Days 0    
Month to date cooling degree days 0  
Year to date cooling degree days 33  
Growing Degree Days 2 (Base 50)    
Moisture  
Dew Point 43 °F    
Average Humidity 70    
Maximum Humidity 89    
Minimum Humidity 51    
Precipitation  
Precipitation 0.29 in - 0.29 in (2011)
Month to date precipitation 0.35  
Year to date precipitation 15.42  
Since 1 July precipitation 2.63  
Sea Level Pressure  
Sea Level Pressure 30.03 in    
Wind  
Wind Speed 4 mph (South)    
Max Wind Speed 13 mph    
Max Gust Speed 23 mph    
Visibility 10 miles    
Events Rain    
T = Trace of Precipitation, MM = Missing Value Source: NWS Daily Summary

Daily Weather History Graph

Daily Weather History Graph

Search for Another Location

Airport or City:

Trip Planner

Search our weather history database for the weather conditions in past years. The results will help you decide how hot, cold, wet, or windy it might be!

Date:

Astronomy

Nov. 05, 2011 Rise Set
Actual Time 7:34 AM PDT 6:06 PM PDT
Civil Twilight 7:07 AM PDT 6:33 PM PDT
Nautical Twilight 6:37 AM PDT 7:04 PM PDT
Astronomical Twilight 6:06 AM PDT 7:34 PM PDT
Moon 3:21 PM PDT (11/5) 2:56 AM PDT (11/5)
Length of Visible Light 11h 25m
Length of Day
10h 32m
Waxing Gibbous, 79% of the Moon is Illuminated
Nov 5
Waxing Gibbous
Nov 10
Full
Nov 18
Last Quarter
Nov 24
New
Dec 2
First Quarter

Hourly Weather History & Observations

Time (PDT) Temp. Dew Point Humidity Pressure Visibility Wind Dir Wind Speed Gust Speed Precip Events Conditions
12:54 AM 50.0 °F 43.0 °F 77% 30.01 in 10.0 mi South 4.6 mph - N/A   Mostly Cloudy
1:29 AM 50.0 °F 42.8 °F 76% 29.97 in 10.0 mi SSW 4.6 mph - N/A   Scattered Clouds
1:54 AM 50.0 °F 42.1 °F 74% 30.01 in 10.0 mi SSW 5.8 mph - N/A   Scattered Clouds
2:13 AM 50.0 °F 42.8 °F 76% 29.98 in 10.0 mi SSW 4.6 mph - N/A   Mostly Cloudy
2:54 AM 50.0 °F 42.1 °F 74% 30.02 in 10.0 mi South 5.8 mph - N/A   Mostly Cloudy
3:54 AM 50.0 °F 42.1 °F 74% 30.03 in 10.0 mi SSW 5.8 mph - N/A   Mostly Cloudy
4:07 AM 48.2 °F 42.8 °F 82% 29.99 in 10.0 mi SW 4.6 mph - N/A   Scattered Clouds
4:54 AM 48.9 °F 42.1 °F 77% 30.03 in 10.0 mi South 3.5 mph - N/A   Partly Cloudy
5:54 AM 50.0 °F 42.1 °F 74% 30.04 in 10.0 mi SSW 4.6 mph - N/A   Mostly Cloudy
6:16 AM 48.2 °F 41.0 °F 76% 30.00 in 10.0 mi SSW 3.5 mph - N/A   Scattered Clouds
6:31 AM 48.2 °F 42.8 °F 82% 30.01 in 10.0 mi SW 3.5 mph - N/A   Mostly Cloudy
6:54 AM 48.0 °F 41.0 °F 77% 30.05 in 10.0 mi SSE 3.5 mph - N/A   Mostly Cloudy
7:17 AM 48.2 °F 42.8 °F 82% 30.01 in 10.0 mi South 3.5 mph - N/A   Scattered Clouds
7:46 AM 48.2 °F 42.8 °F 82% 30.02 in 10.0 mi SE 3.5 mph - N/A   Mostly Cloudy
7:54 AM 48.9 °F 42.1 °F 77% 30.06 in 10.0 mi SE 4.6 mph - N/A   Mostly Cloudy
8:01 AM 48.2 °F 42.8 °F 82% 30.03 in 10.0 mi SSE 5.8 mph - N/A   Mostly Cloudy
8:54 AM 51.1 °F 43.0 °F 74% 30.08 in 10.0 mi SSE 3.5 mph - N/A   Overcast
9:54 AM 53.1 °F 44.1 °F 71% 30.10 in 10.0 mi Calm Calm - N/A   Mostly Cloudy
10:54 AM 54.0 °F 41.0 °F 62% 30.11 in 10.0 mi WNW 6.9 mph - N/A   Overcast
11:54 AM 55.0 °F 39.9 °F 57% 30.11 in 10.0 mi Calm Calm - N/A   Overcast
12:54 PM 55.0 °F 39.9 °F 57% 30.10 in 10.0 mi WNW 4.6 mph - N/A   Overcast
1:54 PM 57.0 °F 39.0 °F 51% 30.08 in 10.0 mi Calm Calm - N/A   Overcast
2:54 PM 57.0 °F 39.9 °F 53% 30.07 in 10.0 mi WSW 6.9 mph - N/A   Overcast
3:54 PM 57.0 °F 41.0 °F 55% 30.05 in 10.0 mi South 4.6 mph - N/A   Overcast
4:54 PM 55.9 °F 39.0 °F 53% 30.04 in 10.0 mi SSW 5.8 mph - N/A   Overcast
5:54 PM 55.9 °F 37.9 °F 51% 30.02 in 10.0 mi Calm Calm - N/A   Overcast
6:54 PM 55.9 °F 41.0 °F 57% 30.01 in 10.0 mi SSE 9.2 mph - N/A   Overcast
7:54 PM 53.1 °F 45.0 °F 74% 29.99 in 10.0 mi SE 10.4 mph - 0.01 in Rain Light Rain
8:54 PM 53.1 °F 46.0 °F 77% 29.97 in 10.0 mi SE 9.2 mph - 0.03 in Rain Light Rain
9:54 PM 53.1 °F 48.0 °F 83% 29.96 in 5.0 mi SSE 8.1 mph - 0.09 in Rain Rain
10:54 PM 52.0 °F 48.0 °F 86% 29.96 in 5.0 mi SE 4.6 mph - 0.15 in Rain Light Rain
11:36 PM 51.8 °F 46.4 °F 82% 29.95 in 10.0 mi Calm Calm - 0.01 in   Mostly Cloudy
11:54 PM 51.1 °F 48.0 °F 89% 29.99 in 10.0 mi Calm Calm - 0.01 in   Overcast